This is the latest recevied weather packets stored in our database for station/object YO4CIL-MG. If no packets are shown the sender has not sent any weather packets the latest 10 day(s).
| Time | Temp. | Humidity | Pressure | Rain* | Wind** | Luminosity | Snow |
|---|---|---|---|---|---|---|---|
| 1777513519 | 11.67° C | 77% | 1021.5 hPa | - | - | - | - |
| 1777512919 | 11.67° C | 78% | 1021.4 hPa | - | - | - | - |
| 1777512318 | 11.67° C | 78% | 1021.5 hPa | - | - | - | - |
| 1777511719 | 11.67° C | 78% | 1021.6 hPa | - | - | - | - |
| 1777511119 | 11.67° C | 78% | 1021.4 hPa | - | - | - | - |
| 1777510518 | 11.67° C | 77% | 1021.2 hPa | - | - | - | - |
| 1777509918 | 11.67° C | 74% | 1021.5 hPa | - | - | - | - |
| 1777509319 | 11.11° C | 74% | 1021.5 hPa | - | - | - | - |
| 1777508718 | 11.11° C | 72% | 1021.3 hPa | - | - | - | - |
| 1777508119 | 11.11° C | 75% | 1021.3 hPa | - | - | - | - |
| 1777507519 | 11.11° C | 76% | 1021.4 hPa | - | - | - | - |
| 1777506918 | 11.11° C | 74% | 1021.5 hPa | - | - | - | - |
| 1777506318 | 11.11° C | 78% | 1021.7 hPa | - | - | - | - |
| 1777505718 | 11.11° C | 79% | 1021.6 hPa | - | - | - | - |
| 1777505119 | 11.11° C | 77% | 1021.7 hPa | - | - | - | - |
| 1777504519 | 11.67° C | 77% | 1021.8 hPa | - | - | - | - |
| 1777503918 | 11.67° C | 77% | 1021.7 hPa | - | - | - | - |
| 1777503318 | 11.67° C | 76% | 1021.7 hPa | - | - | - | - |
| 1777502718 | 11.67° C | 77% | 1021.7 hPa | - | - | - | - |
| 1777502119 | 12.22° C | 77% | 1021.9 hPa | - | - | - | - |
| 1777501518 | 11.67° C | 76% | 1021.8 hPa | - | - | - | - |
| 1777500918 | 12.22° C | 76% | 1021.9 hPa | - | - | - | - |
| 1777500318 | 11.67° C | 76% | 1021.8 hPa | - | - | - | - |
| 1777499718 | 12.22° C | 76% | 1021.9 hPa | - | - | - | - |
| 1777499118 | 12.22° C | 75% | 1022 hPa | - | - | - | - |
* Rain since midnight (hover to see other rain measurements)
** Current wind speed in m/s (hover to see current wind gust speed)